weather.gov     
National Weather Service

Terminal Aerodrome Forecast
NWS Homepage
This page is being discontinued on March 12, 2014.
The same data is available at this site. Please update your bookmarks.
Thank you, and we apologize for the inconvenience.
Please send an email to SR-SRH.Webmaster@noaa.gov with any concerns.


Current Version
Previous Version:    01  02  03  04  05  06  07  08  09  10  11  12  13  14  15  16  17  18  19  20  21  22  23  24  25  26  27  
[Printable]
930
FTUS45 KGJT 201734
TAFVEL
TAF
KVEL 201734Z 2018/2118 VRB03KT P6SM SKC
     FM210200 31005KT P6SM SKC
     FM210800 34007KT P6SM FEW120 BKN250
     FM211400 VRB03KT P6SM VCSH SCT070 BKN120=




930
FTUS45 KGJT 201734
TAFVEL
TAF
KVEL 201734Z 2018/2118 VRB03KT P6SM SKC
     FM210200 31005KT P6SM SKC
     FM210800 34007KT P6SM FEW120 BKN250
     FM211400 VRB03KT P6SM VCSH SCT070 BKN120=


U.S. Dept. of Commerce
NOAA National Weather Service
1325 East West Highway
Silver Spring, MD 20910
E-mail: w-nws.webmaster@noaa.gov
Page last modified: May 16, 2007
NATIONAL WEATHER SERVICE: for Safety, for Work, for Fun - FOR LIFE